sat.trackr.live / text

‹ back to catalog

STARLINK-4656

NORAD 53745 · 2022-107AX

PAYLOAD ACTIVE UNKNOWN

§ Identity

Operator
Country
US
Launch date
2022-09-05
Launch site
AFETR
Launch vehicle
Mass (kg)
RCS (m²)

Purposes: comms

External: N2YO · Heavens-Above · Gunter

§ Orbital elements

Epoch: 2026-09-20T21:46:59.682144Z

Period
93.85 min
Inclination
53.1608°
Eccentricity
0.0001096
Mean motion
15.34385058 rev/d
Perigee alt
462.0 km
Apogee alt
463.5 km
Semi-major
6,840.9 km
B*
1.3376e-5
RAAN
91.7256°
Arg perigee
105.7677°
Mean anomaly
254.3447°
Rev number
22,428

§ Raw data

STARLINK-46561 53745U 22107AX  26263.90763521  .00000076  00000+0  13376-4 0  99942 53745  53.1608  91.7256 0001096 105.7677 254.3447 15.34385058224287

JSON: /api/v1/satellites/53745 · /tle

For live sub-satellite position, see the globe view (requires WebGL).

§ Visibility from observer

Set your observer location to see the next 7 days of passes ≥ 10°. The values pass through the URL so the page stays shareable.

No JS? Fill the form by hand. The geolocation button needs JavaScript.